Regional Weather Roundup
Issued by NWS

Home | Current Version | Previous Version | Graphics & Text | Print | Product List | Glossary Off
Versions: 1 2 3 4 5 6 7 8 9 10 11 12 13 14 15 16 17 18 19 20 21 22 23 24 25 26 27 28 29 30 31 32 33 34 35 36 37 38 39 40 41 42 43 44 45 46 47 48 49 50

000
ASUS43 KDTX 122110
RWRMI
MICHIGAN HOURLY REGIONAL WEATHER ROUNDUP
NATIONAL WEATHER SERVICE DETROIT/PONTIAC MI
400 PM EST FRI FEB 12 2016

NOTE: "FAIR" INDICATES FEW OR NO CLOUDS BELOW 12,000 FEET WITH NO
SIGNIFICANT WEATHER AND/OR OBSTRUCTION TO VISIBILITY.

MIZ047>049-052>055-059>063-066>070-074>076-081>083-122200-
SOUTHEAST LOWER MICHIGAN

CITY           SKY/WX    TMP DP  RH WIND       PRES   REMARKS
ADRIAN         PTSUNNY   22   7  52 NW17G31   29.98R WCI   8
ALMA           LGT SNOW  19  11  70 NW16G24   29.99R WCI   4
ANN ARBOR      MOSUNNY   20  10  65 NW20G30   29.96R WCI   4
BAD AXE        CLOUDY    20  10  64 NW18      29.91R WCI   5
CARO           CLOUDY    19   9  63 W10       29.93R WCI   8
DETROIT CITY   CLOUDY    23  12  62 NW17G23   29.93R WCI   9
DETROIT        LGT SNOW  23  14  68 NW18      29.96R WCI   9
FLINT          SNOW      20  12  71 NW14G26   29.96R VSB 1/2 WCI   7
GROSSE ILE     LGT SNOW  23  16  74 NW10G20   29.94R WCI  12
HILLSDALE      MOSUNNY   20   8  60 W25G31    29.96R WCI   2
HOWELL         CLOUDY    19  10  68 NW17G25   29.95R WCI   3

CITY           SKY/WX    TMP DP  RH WIND       PRES   REMARKS
JACKSON        PTSUNNY   18   6  59 W15G31    29.97R WCI   4
LAMBERTVILLE   FLURRIES  22  17  81 NW8G20    29.98R WCI  13
LANSING        LGT SNOW  19   8  62 NW14      29.99R WCI   6
LAPEER         PTSUNNY   20  10  64 NW12G24   29.93R HAZE    WCI   8
MASON          LGT SNOW  18  13  80 NW14G23   29.97R WCI   4
MONROE         LGT SNOW  22  17  82 NW22G29   29.95R VSB 3/4 WCI   6
MT. CLEMENS    MOSUNNY   21  12  68 W14G25    29.91S WCI   8
PONTIAC        CLOUDY    19   9  65 NW17G26   29.91R WCI   4
PORT HOPE        N/A     19  12  74 NW21G30   29.89R WCI   3
PORT HURON     LGT SNOW  19  14  79 NW14G23   29.93R WCI   6
TRI CITIES     FLURRIES  21   5  50 W14       29.95S WCI   8
MIDLAND        CLOUDY    21   5  50 N16       29.95R WCI   7
TROY           LGT SNOW  22  13  69 NW15G21   29.95R WCI   9
SAGINAW HB     MOSUNNY   21   9  58 W18       29.95S WCI   6
$$
MIZ043>046-050>051-056>058-064>065-071>073-077>080-122200-
SOUTHWEST LOWER MICHIGAN

CITY           SKY/WX    TMP DP  RH WIND       PRES   REMARKS
BATTLE CREEK   LGT SNOW  18  10  71 NW17      30.02R VSB 1   WCI   3
BENTON HARBOR  LGT SNOW  20  10  65 NW15G31   30.11R WCI   6
BIG RAPIDS     PTSUNNY   16   6  63 N13G21    29.99R WCI   2
COLDWATER      LGT SNOW  20  12  73 W16G23    30.01R WCI   5
FREMONT        LGT SNOW  15  10  81 NW12G17   30.04R WCI   2
HOLLAND        LGT SNOW  18   9  68 NW20G29   30.08R VSB 1   WCI   2
GRAND RAPIDS   PTSUNNY   19   9  65 NW14G30   30.03R WCI   6
IONIA          LGT SNOW  17   9  70 NW18G32   30.00R VSB 3/4 WCI   1
KALAMAZOO      LGT SNOW  18  11  74 NW21      30.04R WCI   1
LUDINGTON      SNOW      14  11  87 NW13G25   30.08R VSB<1/4 WCI   0
MARSHALL       FLURRIES  22  12  67 NW12G21   29.99S WCI  10
MOUNT PLEASANT PTSUNNY   22   6  49 NW10G22   29.97R WCI  11
MUSKEGON       FLURRIES  18   7  62 NW16G28   30.07R WCI   3
SOUTH HAVEN    CLOUDY    21   8  57 NW15G31   30.09R HAZE    WCI   7
$$
MIZ016>042-122200-
NORTHERN LOWER MICHIGAN

CITY           SKY/WX    TMP DP  RH WIND       PRES   REMARKS
ALPENA         LGT SNOW  11   2  67 NW21G32   29.98R WCI  -8
BEAVER ISLAND  SNOW       8   2  78 NW22G36   30.09R VSB 1/4 WCI -13
BELLAIRE       LGT SNOW  12   3  68 N17G29    30.07R WCI  -6
CADILLAC       SNOW      12   7  80 N21G26    29.96R VSB 1/4 WCI  -6
CHARLEVOIX     CLOUDY    12  -1  55 NW20G37   30.08R WCI  -6
FRANKFORT      LGT SNOW  14   4  63 N14G28    30.09R WCI  -1
GAYLORD        HVY SNOW   8   3  80 VRB7      29.96R VSB 1/4 WCI  -3
GRAYLING       LGT SNOW  11   4  74 NW16G25   29.98R VSB 1   WCI  -6
HARBOR SPRINGS CLOUDY     9  -2  63 NW15G24   30.04R HAZE    WCI  -8
HOUGHTON LAKE  SNOW      12   6  77 N16G28    29.96R VSB 1/2 WCI  -5
MANISTEE       CLOUDY    16   7  67 N18G25    30.08R VSB 1/2 WCI  -1
OSCODA         LGT SNOW  15   9  78 N12G25    29.93R VSB 1   WCI   1
PELLSTON       PTSUNNY    7  -2  66 NW23G37   30.06R BLWGSNOWWCI -14
ROGERS CITY    LGT SNOW  10   1  64 NW20G30   30.00R WCI  -8
TRAVERSE CITY  HVY SNOW  13   7  77 N26G33    30.05R VSB 1/4 WCI  -7
$$
MIZ007>008-015-122200-
EASTERN UPPER MICHIGAN

CITY           SKY/WX    TMP DP  RH WIND       PRES   REMARKS
KINROSS        CLOUDY     3   1  92 NW24G32   30.00R VSB<1/4 WCI -20
MACKINAC ISLAN PTSUNNY    8  -6  54 NW24G33   30.03R WCI -14
NEWBERRY       LGT SNOW   4  -1  78 N17G24    30.06R VSB 3/4 WCI -15
S. S. MARIE    LGT SNOW   2  -7  66 NW20G26   30.03R WCI -19
MUNISING         N/A      4  -2  76 N20G33    30.16R WCI -17
$$
MIZ004>006-011>014-085-122200-
CENTRAL UPPER MICHIGAN

CITY           SKY/WX    TMP DP  RH WIND       PRES   REMARKS
MANISTIQUE     LGT SNOW   5  -3  69 NW18G26   30.12R WCI -15
ESCANABA       CLOUDY     7  -8  51 N12G23    30.18R WCI  -9
MENOMINEE      PTSUNNY    9  -2  61 NW14G24   30.17R WCI  -8
SAWYER-GWINN   PTSUNNY   -2 -11  65 NW24G32   30.14R HAZE    WCI -27
$$
MIZ001>003-009>011-084-122200-
WESTERN UPPER MICHIGAN

CITY           SKY/WX    TMP DP  RH WIND       PRES   REMARKS
IRON MOUNTAIN  LGT SNOW   3 -10  54 NW24G37   30.16R WCI -20
HOUGHTON       HVY SNOW  -1  -8  72 NW15      30.21R VSB 1/4 WCI -21
COPPER HARBOR    N/A      3  -1  83 N29G35    30.22R WCI -21
IRONWOOD       CLOUDY     1  -6  71 NW18      30.27S WCI -19
$$

ABBREVIATIONS USED IN REMARKS
   TC - TEMPERATURE IN CELSIUS
  WCI - WIND CHILL INDEX
   HX - HEAT INDEX
  VSB - VISIBILITY




USA.gov is the U.S. government's official web portal to all federal, state and local government web resources and services.